Погода в Фигерасе

Испания     42°15′56″N   2°57′29″E
темп.,
°C
ветер,
м/с
пор.,
м/с
влажн.,
%
обл.,
%
осадки,
мм/ч
давл.,
гПа
погр.,
м
14 мая, пт
пт1423:00+11ссз478261 0.0 101096
02:00+11сз228235 0.0 101026
05:00+12сз3775100 0.0 1010281
08:00+11сз3788100 1.4 1011322
11:00+11юз338974 3.3 1013157
14:00+20ю353778 3.4 10132369
17:00+18ююв455254 0.2 10141099
20:00+16ююз3670100 0.4 1015247
15 мая, сб
сб1523:00+12зсз1187100 0.0 101610
02:00+11юз1191100 0.0 101613
05:00+10з1192100 0.0 101511
08:00+12юз1285100 0.0 1014106
11:00+18ююз3452100 0.0 1012820
14:00+24юз1537100 0.0 10101754
17:00+21св675595 0.0 1010632
20:00+16ссв3765100 0.0 1012344
16 мая, вс
вс1623:00+13сз118216 0.0 101411
02:00+12з228495 0.0 101316
05:00+12з1180100 0.0 101112
08:00+14юз117194 0.0 101264
11:00+20юв21566 0.0 1012752
14:00+22в545596 0.0 1012918
17:00+17в1470100 0.0 1013285
20:00+16сз127899 0.0 101367
17 мая, пн
пн1723:00+15ссз3571100 0.0 1015268
02:00+14сз2367100 0.0 1015113
05:00+14сз2365100 0.1 1015103
08:00+12з2281100 0.4 101739
11:00+12юз1286100 0.4 1018121
14:00+13з1279100 0.4 1018233
17:00+13ююз2381100 0.1 1018169
20:00+13з1279100 0.1 101941
18 мая, вт
вт1823:00+13з1180100 0.1 102115
02:00+13зсз0079100 0.1 102111
05:00+12сз118099 0.1 102215
08:00+12ссз2368100 0.1 102393
11:00+15с124998 0.0 1024636
14:00+20ююв334038 0.0 10231756
17:00+18ююв446179 0.1 1022739
20:00+16ююз127098 0.1 102376